Overview Statistics Trail Chart Weather Telemetry Raw packets
 

This is the latest recevied weather packets stored in our database for station/object W8RSN-13. If no packets are shown the sender has not sent any weather packets the latest 10 day(s).

<< 90 91 92 93 94 95 96 >>
Time Temp. Humidity Pressure Rain* Wind** Luminosity Snow
1788019756 29.44° C 48% 1015.1 hPa - - - -
1788019475 28.89° C 49% 1015.1 hPa - - - -
1788019174 28.89° C 50% 1015.2 hPa - - - -
1788018873 28.33° C 51% 1014.9 hPa - - - -
1788018573 28.89° C 51% 1015.3 hPa - - - -
1788018272 28.89° C 49% 1015.2 hPa - - - -
1788017971 29.44° C 48% 1015.3 hPa - - - -
1788017670 28.89° C 49% 1015.3 hPa - - - -
1788017369 28.33° C 51% 1015.4 hPa - - - -
1788017068 28.33° C 50% 1015.4 hPa - - - -
1788016767 27.78° C 52% 1015.2 hPa - - - -
1788016466 27.22° C 53% 1015.3 hPa - - - -
1788016165 26.67° C 54% 1015.3 hPa - - - -
1788015864 26.67° C 54% 1015.3 hPa - - - -
1788015564 26.67° C 54% 1015.1 hPa - - - -
1788015263 26.11° C 54% 1015.3 hPa - - - -
1788014962 26.11° C 54% 1015.2 hPa - - - -
1788014661 26.11° C 54% 1015.2 hPa - - - -
1788014361 25.56° C 54% 1015.1 hPa - - - -
1788014059 25.56° C 56% 1015.1 hPa - - - -
1788013758 25.56° C 57% 1014.9 hPa - - - -
1788013458 25° C 58% 1015 hPa - - - -
1788013156 25° C 59% 1015.1 hPa - - - -
1788012876 24.44° C 61% 1015.1 hPa - - - -
1788012575 24.44° C 61% 1015.1 hPa - - - -

* Rain since midnight (hover to see other rain measurements)
** Current wind speed in m/s (hover to see current wind gust speed)